CAS340 VHHH-CYVR

Flight info

Callsign CAS340
Flight time N/A
Altitude 35000
Route DALOL V631 ENVAR M750 MUKEP Y891 OVSUN/N0450F360 Y893 IGMIS/N0452F350 Y57 POROT/N0452F370 Y57 DOVIX OTR5 KALNA DCT 43N160E 44N170E 45N180E 48N170W/N0462F390 52N160W 53N150W 54N140W DCT KATCH DCT POWOL WHSLR8
Aircraft A343/H-SDE2E3FGHIJ4J5M1RWXY/LB1D1

Departure

Time 2026-05-04 21:50
Airport Hong Kong International Airport (VHHH)

Arrival

Time N/A
Airport Vancouver International Airport (CYVR)
Time Latitude Longitude Altitude Speed Heading
2026-05-04 21:24 22.30771 113.89985 36 ft 0 kts 341°
2026-05-04 21:37 22.30754 113.89988 34 ft 3 kts 19°
2026-05-04 21:37 22.30738 113.89978 34 ft 3 kts 61°
2026-05-04 21:37 22.30734 113.89972 33 ft 0 kts 77°
2026-05-04 21:38 22.30731 113.89978 32 ft 3 kts 110°
2026-05-04 21:38 22.30700 113.90037 36 ft 11 kts 92°
2026-05-04 21:38 22.30702 113.90048 36 ft 0 kts 81°
2026-05-04 21:40 22.30728 113.90084 36 ft 9 kts 29°
2026-05-04 21:40 22.30781 113.90083 36 ft 7 kts 342°
2026-05-04 21:40 22.30830 113.90067 36 ft 9 kts 340°
2026-05-04 21:40 22.30874 113.90021 36 ft 6 kts 280°
2026-05-04 21:41 22.30866 113.89967 36 ft 9 kts 255°
2026-05-04 21:41 22.30845 113.89893 36 ft 12 kts 254°
2026-05-04 21:41 22.30832 113.89795 36 ft 15 kts 272°
2026-05-04 21:41 22.30851 113.89676 36 ft 17 kts 276°
2026-05-04 21:42 22.30844 113.89539 36 ft 19 kts 263°
2026-05-04 21:42 22.30848 113.89426 36 ft 11 kts 297°
2026-05-04 21:42 22.30850 113.89423 36 ft 0 kts 302°
2026-05-04 21:46 22.30850 113.89422 36 ft 0 kts 302°
2026-05-04 21:46 22.30909 113.89394 33 ft 17 kts 353°
2026-05-04 21:46 22.30972 113.89442 33 ft 10 kts 59°
2026-05-04 21:46 22.31005 113.89533 33 ft 20 kts 71°
2026-05-04 21:47 22.31052 113.89675 33 ft 19 kts 71°
2026-05-04 21:47 22.31094 113.89805 34 ft 18 kts 71°
2026-05-04 21:47 22.31128 113.89914 34 ft 0 kts 71°
2026-05-04 21:49 22.31135 113.89936 34 ft 20 kts 71°
2026-05-04 21:49 22.31256 113.90312 34 ft 84 kts 71°
2026-05-04 21:50 22.31513 113.91108 36 ft 138 kts 71°
2026-05-04 21:50 22.31868 113.92210 253 ft 167 kts 72°
2026-05-04 21:50 22.32364 113.93402 829 ft 177 kts 62°
2026-05-04 21:50 22.33031 113.94530 1582 ft 182 kts 62°
2026-05-04 21:51 22.33714 113.95749 2169 ft 196 kts 62°
2026-05-04 21:51 22.34430 113.97053 2795 ft 207 kts 63°
2026-05-04 21:51 22.35230 113.98462 3022 ft 233 kts 49°
2026-05-04 21:51 22.36548 113.99614 3290 ft 255 kts 34°
2026-05-04 21:52 22.38072 114.00684 3745 ft 266 kts 33°
2026-05-04 21:52 22.39640 114.01814 4283 ft 274 kts 33°
2026-05-04 21:52 22.41225 114.03001 4926 ft 279 kts 33°
2026-05-04 21:52 22.42787 114.04205 5606 ft 280 kts 34°
2026-05-04 21:53 22.44393 114.05459 6311 ft 282 kts 33°
2026-05-04 21:53 22.45978 114.06704 6847 ft 288 kts 33°
2026-05-04 21:53 22.47607 114.07985 7475 ft 290 kts 34°
2026-05-04 21:53 22.49152 114.09420 8077 ft 298 kts 45°
2026-05-04 21:54 22.50370 114.11276 8563 ft 308 kts 64°
2026-05-04 21:54 22.50997 114.13499 9101 ft 313 kts 84°
2026-05-04 21:54 22.50917 114.15847 9664 ft 314 kts 105°
2026-05-04 21:54 22.50071 114.18001 10176 ft 312 kts 130°
2026-05-04 21:55 22.48561 114.19711 10464 ft 320 kts 145°
2026-05-04 21:55 22.46737 114.21160 10701 ft 331 kts 150°
2026-05-04 21:55 22.44777 114.22557 10950 ft 344 kts 149°
2026-05-04 21:55 22.42757 114.24036 11204 ft 357 kts 147°
2026-05-04 21:56 22.40742 114.25617 11501 ft 366 kts 145°
2026-05-04 21:56 22.38712 114.27315 11967 ft 370 kts 143°
2026-05-04 21:56 22.36703 114.29068 12450 ft 373 kts 142°
2026-05-04 21:56 22.34694 114.30864 12979 ft 376 kts 142°
2026-05-04 21:57 22.32683 114.32681 13524 ft 377 kts 142°
2026-05-04 21:57 22.30664 114.34504 14019 ft 379 kts 142°
2026-05-04 21:57 22.28630 114.36337 14425 ft 383 kts 142°
2026-05-04 21:57 22.26569 114.38186 14840 ft 386 kts 142°
2026-05-04 21:58 22.24488 114.40047 15150 ft 393 kts 143°
2026-05-04 21:58 22.22362 114.41943 15504 ft 398 kts 143°
2026-05-04 21:58 22.20227 114.43846 15972 ft 400 kts 143°
2026-05-04 21:58 22.18099 114.45742 16397 ft 403 kts 143°
2026-05-04 21:59 22.15923 114.47682 16822 ft 406 kts 143°
2026-05-04 21:59 22.13740 114.49629 17260 ft 409 kts 143°
2026-05-04 21:59 22.11538 114.51591 17689 ft 412 kts 143°
2026-05-04 21:59 22.09311 114.53575 17931 ft 420 kts 143°
2026-05-04 22:00 22.07037 114.55597 18287 ft 425 kts 144°
2026-05-04 22:00 22.04760 114.57622 18671 ft 427 kts 144°
2026-05-04 22:00 22.02452 114.59673 19031 ft 430 kts 144°
2026-05-04 22:00 22.00138 114.61729 19366 ft 433 kts 144°
2026-05-04 22:01 21.97806 114.63801 19713 ft 436 kts 144°
2026-05-04 22:01 21.95462 114.65882 20065 ft 438 kts 144°
2026-05-04 22:01 21.93089 114.67989 20413 ft 441 kts 144°
2026-05-04 22:01 21.90705 114.70104 20741 ft 444 kts 144°
2026-05-04 22:02 21.88311 114.72226 21076 ft 447 kts 144°
2026-05-04 22:02 21.85932 114.74336 21401 ft 450 kts 144°
2026-05-04 22:02 21.83504 114.76486 21736 ft 453 kts 145°
2026-05-04 22:02 21.81085 114.78685 22060 ft 457 kts 141°
2026-05-04 22:03 21.78856 114.81175 22372 ft 465 kts 133°
2026-05-04 22:03 21.76968 114.84023 22697 ft 472 kts 123°
2026-05-04 22:03 21.75528 114.87225 23013 ft 478 kts 112°
2026-05-04 22:03 21.74632 114.90694 23358 ft 483 kts 101°
2026-05-04 22:04 21.74287 114.94308 23652 ft 487 kts 94°
2026-05-04 22:04 21.74189 114.97957 23907 ft 490 kts 91°
2026-05-04 22:04 21.74196 115.01636 24140 ft 494 kts 89°
2026-05-04 22:04 21.74242 115.05291 24394 ft 496 kts 89°
2026-05-04 22:05 21.74290 115.09012 24681 ft 498 kts 89°
2026-05-04 22:05 21.74326 115.12745 24942 ft 500 kts 90°
2026-05-04 22:05 21.74345 115.16488 25222 ft 502 kts 90°
2026-05-04 22:05 21.74350 115.20251 25478 ft 504 kts 90°
2026-05-04 22:06 21.74350 115.24030 25729 ft 506 kts 90°
2026-05-04 22:06 21.74344 115.27825 25989 ft 509 kts 90°
2026-05-04 22:06 21.74334 115.31637 26243 ft 511 kts 90°
2026-05-04 22:06 21.74322 115.35465 26465 ft 514 kts 90°
2026-05-04 22:07 21.74309 115.39318 26672 ft 517 kts 90°
2026-05-04 22:07 21.74297 115.43189 26922 ft 518 kts 90°
2026-05-04 22:07 21.74284 115.47080 27171 ft 520 kts 90°
2026-05-04 22:07 21.74271 115.50952 27409 ft 522 kts 90°
2026-05-04 22:08 21.74258 115.54868 27640 ft 524 kts 90°
2026-05-04 22:08 21.74243 115.58805 27882 ft 526 kts 90°
2026-05-04 22:08 21.74226 115.62744 28088 ft 528 kts 90°
2026-05-04 22:08 21.74211 115.66704 28307 ft 530 kts 90°
2026-05-04 22:09 21.74196 115.70675 28521 ft 532 kts 90°
2026-05-04 22:09 21.74180 115.74663 28741 ft 534 kts 90°
2026-05-04 22:09 21.74163 115.78659 28951 ft 536 kts 90°
2026-05-04 22:09 21.74145 115.82679 29161 ft 537 kts 90°
2026-05-04 22:10 21.74125 115.86711 29367 ft 539 kts 90°
2026-05-04 22:10 21.74105 115.90703 29552 ft 541 kts 90°
2026-05-04 22:10 21.74083 115.94747 29752 ft 543 kts 90°
2026-05-04 22:10 21.74060 115.98810 29936 ft 545 kts 91°
2026-05-04 22:11 21.74035 116.02893 30153 ft 546 kts 91°
2026-05-04 22:11 21.74010 116.06981 30402 ft 545 kts 91°
2026-05-04 22:11 21.73984 116.11055 30633 ft 544 kts 91°
2026-05-04 22:11 21.73957 116.15131 30859 ft 544 kts 91°
2026-05-04 22:12 21.73929 116.19206 30986 ft 546 kts 91°
2026-05-04 22:12 21.73870 116.27324 30995 ft 544 kts 91°
2026-05-04 22:13 21.73807 116.35466 30993 ft 543 kts 91°
2026-05-04 22:13 21.73739 116.43587 30994 ft 543 kts 91°
2026-05-04 22:14 21.73668 116.51711 30997 ft 543 kts 91°
2026-05-04 22:14 21.73593 116.59844 30993 ft 543 kts 91°
2026-05-04 22:15 21.73514 116.67967 30992 ft 543 kts 91°
2026-05-04 22:15 21.73568 116.76095 31005 ft 543 kts 84°
2026-05-04 22:15 21.74224 116.80078 31005 ft 542 kts 73°
2026-05-04 22:16 21.75368 116.83896 30997 ft 542 kts 69°
2026-05-04 22:16 21.78044 116.91549 31003 ft 551 kts 67°
2026-05-04 22:17 21.80905 116.99302 30998 ft 559 kts 66°
2026-05-04 22:17 21.83758 117.07091 30999 ft 559 kts 67°
2026-05-04 22:18 21.86580 117.14889 31002 ft 558 kts 67°
2026-05-04 22:18 21.89381 117.22677 30999 ft 557 kts 67°
2026-05-04 22:19 21.92177 117.30463 30997 ft 556 kts 67°
2026-05-04 22:19 21.94948 117.38188 31006 ft 558 kts 67°
2026-05-04 22:20 21.97751 117.46015 31004 ft 560 kts 67°
2026-05-04 22:20 22.01194 117.53499 30999 ft 556 kts 57°
2026-05-04 22:21 22.05164 117.60645 31001 ft 555 kts 56°
2026-05-04 22:21 22.09219 117.67738 31002 ft 555 kts 56°
2026-05-04 22:22 22.13243 117.74787 31007 ft 555 kts 56°
2026-05-04 22:22 22.17279 117.81903 31008 ft 557 kts 56°
2026-05-04 22:23 22.21322 117.89055 31009 ft 558 kts 56°
2026-05-04 22:23 22.25361 117.96214 31010 ft 558 kts 56°
2026-05-04 22:24 22.29412 118.03381 31012 ft 558 kts 56°
2026-05-04 22:24 22.32850 118.09283 31010 ft 557 kts 55°
2026-05-04 22:25 22.37673 118.17491 31024 ft 554 kts 55°
2026-05-04 22:25 22.41140 118.23426 31011 ft 560 kts 55°
2026-05-04 22:26 22.45234 118.30619 31013 ft 562 kts 56°
2026-05-04 22:26 22.49273 118.37795 31008 ft 562 kts 56°
2026-05-04 22:27 22.53340 118.45014 31008 ft 561 kts 56°
2026-05-04 22:27 22.57414 118.52236 31012 ft 561 kts 56°
2026-05-04 22:28 22.61503 118.59430 31012 ft 561 kts 56°
2026-05-04 22:28 22.65605 118.66615 31004 ft 561 kts 56°
2026-05-04 22:29 22.69678 118.73765 31009 ft 561 kts 56°
2026-05-04 22:29 22.73765 118.80961 31012 ft 561 kts 56°
2026-05-04 22:30 22.77850 118.88167 31010 ft 561 kts 56°
2026-05-04 22:30 22.81931 118.95377 31014 ft 562 kts 56°
2026-05-04 22:31 22.86013 119.02598 31012 ft 562 kts 56°
2026-05-04 22:31 22.90071 119.09789 31010 ft 562 kts 56°
2026-05-04 22:32 22.94145 119.17016 31007 ft 562 kts 56°
2026-05-04 22:32 22.98225 119.24263 31008 ft 562 kts 56°
2026-05-04 22:33 23.02296 119.31505 31008 ft 562 kts 56°
2026-05-04 22:33 23.06375 119.38771 31004 ft 563 kts 56°
2026-05-04 22:34 23.10454 119.46047 31005 ft 564 kts 56°
2026-05-04 22:34 23.14525 119.53321 31004 ft 563 kts 56°
2026-05-04 22:35 23.18566 119.60554 31003 ft 563 kts 57°
2026-05-04 22:35 23.22623 119.67826 31012 ft 563 kts 56°
2026-05-04 22:36 23.26702 119.75127 31009 ft 565 kts 56°
2026-05-04 22:36 23.30778 119.82439 31011 ft 565 kts 56°
2026-05-04 22:37 23.34866 119.89744 31010 ft 563 kts 53°
2026-05-04 22:37 23.39930 119.96135 31001 ft 556 kts 41°
2026-05-04 22:38 23.45505 120.02001 31005 ft 556 kts 39°
2026-05-04 22:38 23.51151 120.07762 31012 ft 557 kts 39°
2026-05-04 22:39 23.56794 120.13537 31009 ft 557 kts 39°
2026-05-04 22:39 23.62392 120.19305 31012 ft 557 kts 39°
2026-05-04 22:40 23.68014 120.25119 31006 ft 557 kts 39°
2026-05-04 22:40 23.73644 120.30950 31015 ft 557 kts 39°
2026-05-04 22:41 23.79272 120.36786 31012 ft 557 kts 39°
2026-05-04 22:41 23.84900 120.42628 31019 ft 558 kts 39°
2026-05-04 22:42 23.90525 120.48472 31015 ft 558 kts 39°
2026-05-04 22:42 23.96096 120.54318 31026 ft 558 kts 40°
2026-05-04 22:43 24.01679 120.60219 31033 ft 558 kts 40°
2026-05-04 22:43 24.07269 120.66132 31048 ft 558 kts 40°
2026-05-04 22:44 24.12862 120.72049 31047 ft 559 kts 40°
2026-05-04 22:44 24.18463 120.77979 31048 ft 560 kts 40°
2026-05-04 22:45 24.24033 120.83885 31052 ft 560 kts 40°
2026-05-04 22:45 24.32438 120.92803 31071 ft 560 kts 39°
2026-05-04 22:46 24.38055 120.98766 31052 ft 562 kts 39°
2026-05-04 22:46 24.43381 121.05073 31049 ft 565 kts 46°
2026-05-04 22:47 24.48345 121.11796 31048 ft 566 kts 48°
2026-05-04 22:47 24.53236 121.18577 31081 ft 566 kts 47°
2026-05-04 22:48 24.58093 121.25318 31059 ft 566 kts 48°
2026-05-04 22:48 24.62988 121.32113 31080 ft 566 kts 48°
2026-05-04 22:49 24.67882 121.38897 31075 ft 565 kts 47°
2026-05-04 22:49 24.72777 121.45680 31062 ft 565 kts 47°
2026-05-04 22:50 24.77666 121.52458 31042 ft 566 kts 48°
2026-05-04 22:50 24.82550 121.59260 31064 ft 566 kts 48°
2026-05-04 22:51 24.87411 121.66016 31034 ft 566 kts 48°
2026-05-04 22:51 24.92349 121.72804 31060 ft 567 kts 46°
2026-05-04 22:52 24.97512 121.79338 31054 ft 565 kts 44°
2026-05-04 22:52 25.02723 121.85843 31054 ft 565 kts 45°
2026-05-04 22:53 25.07865 121.92341 31060 ft 565 kts 45°
2026-05-04 22:53 25.13004 121.98908 31068 ft 565 kts 45°
2026-05-04 22:54 25.18116 122.05504 31074 ft 565 kts 46°
2026-05-04 22:54 25.23211 122.12135 31058 ft 566 kts 46°
2026-05-04 22:55 25.28284 122.18737 31070 ft 567 kts 46°
2026-05-04 22:55 25.33392 122.25385 31068 ft 567 kts 46°
2026-05-04 22:56 25.38496 122.32035 31070 ft 566 kts 46°
2026-05-04 22:56 25.43584 122.38673 31084 ft 565 kts 46°
2026-05-04 22:57 25.48680 122.45329 31070 ft 567 kts 46°
2026-05-04 22:57 25.53792 122.51999 31084 ft 567 kts 46°
2026-05-04 22:58 25.58864 122.58577 31086 ft 563 kts 46°
2026-05-04 22:58 25.63931 122.65170 31085 ft 563 kts 46°
2026-05-04 22:59 25.69028 122.71812 31098 ft 567 kts 46°
2026-05-04 22:59 25.74138 122.78484 31123 ft 567 kts 46°
2026-05-04 23:00 25.79243 122.85157 31091 ft 567 kts 46°
2026-05-04 23:00 25.84350 122.91843 31102 ft 567 kts 46°
2026-05-04 23:01 25.89408 122.98475 31108 ft 566 kts 46°
2026-05-04 23:01 25.94489 123.05154 31105 ft 567 kts 46°
2026-05-04 23:02 25.99607 123.11882 31102 ft 573 kts 46°
2026-05-04 23:02 26.04756 123.18667 31104 ft 573 kts 46°
2026-05-04 23:03 26.09870 123.25422 31104 ft 568 kts 46°
2026-05-04 23:03 26.14959 123.32147 31116 ft 570 kts 46°
2026-05-04 23:04 26.20070 123.38906 31113 ft 576 kts 46°
2026-05-04 23:04 26.25224 123.45739 31111 ft 576 kts 46°
2026-05-04 23:05 26.30374 123.52579 31116 ft 576 kts 46°
2026-05-04 23:05 26.35528 123.59431 31117 ft 578 kts 46°
2026-05-04 23:06 26.40707 123.66328 31113 ft 580 kts 46°
2026-05-04 23:06 26.45878 123.73226 31109 ft 579 kts 46°
2026-05-04 23:07 26.51042 123.80125 31131 ft 579 kts 46°
2026-05-04 23:07 26.56200 123.87028 31113 ft 578 kts 46°
2026-05-04 23:08 26.61352 123.93930 31116 ft 578 kts 46°
2026-05-04 23:08 26.66508 124.00850 31118 ft 579 kts 47°
2026-05-04 23:09 26.71637 124.07730 31118 ft 580 kts 46°
2026-05-04 23:09 26.76814 124.14649 31125 ft 580 kts 46°
2026-05-04 23:10 26.81992 124.21586 31116 ft 580 kts 46°
2026-05-04 23:10 26.87148 124.28516 31125 ft 577 kts 47°
2026-05-04 23:11 26.92291 124.35436 31127 ft 578 kts 46°
2026-05-04 23:11 26.97435 124.42367 31127 ft 579 kts 47°
2026-05-04 23:12 27.02576 124.49313 31123 ft 579 kts 47°
2026-05-04 23:12 27.07720 124.56261 31140 ft 577 kts 46°
2026-05-04 23:13 27.12806 124.63139 31135 ft 575 kts 46°
2026-05-04 23:13 27.17906 124.70046 31137 ft 575 kts 47°
2026-05-04 23:14 27.23011 124.76975 31135 ft 577 kts 47°
2026-05-04 23:14 27.28125 124.83927 31134 ft 575 kts 47°
2026-05-04 23:15 27.32354 124.89687 31140 ft 573 kts 47°
2026-05-04 23:15 27.37426 124.96602 31141 ft 573 kts 47°
2026-05-04 23:16 27.42514 125.03539 31159 ft 575 kts 47°
2026-05-04 23:16 27.47637 125.10443 31141 ft 573 kts 47°
2026-05-04 23:17 27.52755 125.17333 31143 ft 573 kts 47°
2026-05-04 23:17 27.57833 125.24194 31144 ft 573 kts 47°
2026-05-04 23:18 27.62943 125.31116 31148 ft 573 kts 47°
2026-05-04 23:18 27.68038 125.38035 31148 ft 573 kts 47°
2026-05-04 23:19 27.73136 125.44969 31151 ft 573 kts 47°
2026-05-04 23:19 27.78195 125.51861 31153 ft 573 kts 47°
2026-05-04 23:20 27.83283 125.58801 31151 ft 574 kts 47°
2026-05-04 23:20 27.88370 125.65753 31151 ft 574 kts 47°
2026-05-04 23:21 27.93461 125.72720 31154 ft 574 kts 47°
2026-05-04 23:21 27.98557 125.79705 31153 ft 575 kts 47°
2026-05-04 23:22 28.03611 125.86644 31157 ft 575 kts 47°
2026-05-04 23:22 28.08697 125.93640 31159 ft 575 kts 47°
2026-05-04 23:23 28.13783 126.00647 31147 ft 575 kts 47°
2026-05-04 23:23 28.18858 126.07650 31147 ft 574 kts 47°
2026-05-04 23:24 28.23917 126.14642 31152 ft 574 kts 47°
2026-05-04 23:24 28.28952 126.21613 31173 ft 574 kts 47°
2026-05-04 23:25 28.34014 126.28633 31156 ft 574 kts 47°
2026-05-04 23:25 28.39073 126.35660 31161 ft 574 kts 47°
2026-05-04 23:26 28.44126 126.42690 31156 ft 574 kts 47°
2026-05-04 23:26 28.49177 126.49730 31176 ft 574 kts 47°
2026-05-04 23:27 28.54190 126.56728 31165 ft 575 kts 48°
2026-05-04 23:27 28.59243 126.63793 31170 ft 575 kts 48°
2026-05-04 23:28 28.64286 126.70857 31170 ft 575 kts 47°
2026-05-04 23:28 28.69329 126.77934 31164 ft 575 kts 48°
2026-05-04 23:29 28.74361 126.85007 31183 ft 574 kts 48°
2026-05-04 23:29 28.79367 126.92054 31175 ft 575 kts 47°
2026-05-04 23:30 28.84392 126.99141 31168 ft 575 kts 47°
2026-05-04 23:30 28.89423 127.06247 31168 ft 575 kts 48°
2026-05-04 23:31 28.94451 127.13362 31197 ft 575 kts 47°
2026-05-04 23:31 28.99485 127.20496 31167 ft 577 kts 47°
2026-05-04 23:32 29.04483 127.27595 31162 ft 576 kts 48°
2026-05-04 23:32 29.09498 127.34730 31163 ft 576 kts 48°
2026-05-04 23:33 29.14520 127.41884 31168 ft 577 kts 47°
2026-05-04 23:33 29.19549 127.49062 31159 ft 577 kts 48°
2026-05-04 23:34 29.24561 127.56233 31162 ft 576 kts 48°
2026-05-04 23:34 29.29578 127.63416 31168 ft 578 kts 47°
2026-05-04 23:35 29.34605 127.70626 31167 ft 579 kts 47°
2026-05-04 23:35 29.39621 127.77837 31169 ft 578 kts 48°
2026-05-04 23:36 29.44631 127.85053 31172 ft 578 kts 47°
2026-05-04 23:36 29.49616 127.92242 31168 ft 579 kts 47°
2026-05-04 23:37 29.54630 127.99491 31171 ft 579 kts 48°
2026-05-04 23:37 29.59639 128.06736 31168 ft 579 kts 47°
2026-05-04 23:38 29.64654 128.13992 31171 ft 580 kts 47°
2026-05-04 23:38 29.69670 128.21267 31175 ft 580 kts 48°
2026-05-04 23:39 29.74643 128.28496 31176 ft 580 kts 48°
2026-05-04 23:39 29.79649 128.35787 31177 ft 580 kts 48°
2026-05-04 23:40 29.84646 128.43076 31177 ft 580 kts 48°
2026-05-04 23:40 29.89644 128.50380 31186 ft 580 kts 48°
2026-05-04 23:41 29.94641 128.57698 31177 ft 580 kts 48°
2026-05-04 23:41 29.99596 128.64965 31179 ft 580 kts 48°
2026-05-04 23:42 30.04576 128.72284 31181 ft 580 kts 48°
2026-05-04 23:42 30.09554 128.79612 31180 ft 580 kts 48°
2026-05-04 23:43 30.14535 128.86958 31185 ft 580 kts 48°
2026-05-04 23:43 30.19506 128.94302 31185 ft 580 kts 49°
2026-05-04 23:44 30.24464 129.01643 31182 ft 579 kts 49°
2026-05-04 23:44 30.29396 129.08959 31180 ft 579 kts 49°
2026-05-04 23:45 30.34354 129.16323 31181 ft 580 kts 49°
2026-05-04 23:45 30.39311 129.23702 31182 ft 580 kts 49°
2026-05-04 23:46 30.44260 129.31082 31182 ft 580 kts 49°
2026-05-04 23:46 30.49205 129.38470 31182 ft 581 kts 49°
2026-05-04 23:47 30.54154 129.45878 31187 ft 581 kts 49°
2026-05-04 23:47 30.59105 129.53304 31184 ft 581 kts 49°
2026-05-04 23:48 30.64054 129.60738 31181 ft 583 kts 49°
2026-05-04 23:48 30.69013 129.68203 31187 ft 583 kts 49°
2026-05-04 23:49 30.73939 129.75634 31212 ft 583 kts 49°
2026-05-04 23:49 30.78894 129.83120 31181 ft 584 kts 49°
2026-05-04 23:50 30.83825 129.90631 31187 ft 585 kts 52°
2026-05-04 23:50 30.88247 129.98596 31208 ft 587 kts 55°
2026-05-04 23:51 30.92563 130.06695 31181 ft 588 kts 56°
2026-05-04 23:51 30.96821 130.14769 31187 ft 588 kts 56°
2026-05-04 23:52 31.01112 130.22897 31204 ft 588 kts 56°
2026-05-04 23:52 31.05412 130.31039 31192 ft 589 kts 56°
2026-05-04 23:53 31.09705 130.39176 31192 ft 589 kts 56°
2026-05-04 23:53 31.13999 130.47334 31212 ft 590 kts 56°
2026-05-04 23:54 31.18284 130.55495 31190 ft 590 kts 56°
2026-05-04 23:54 31.22542 130.63618 31196 ft 589 kts 56°
2026-05-04 23:55 31.26813 130.71785 31210 ft 588 kts 56°
2026-05-04 23:56 31.33220 130.84073 31199 ft 589 kts 56°
2026-05-04 23:56 31.37482 130.92267 31185 ft 589 kts 56°
2026-05-04 23:57 31.41744 131.00478 31205 ft 590 kts 56°
2026-05-04 23:57 31.45972 131.08644 31206 ft 590 kts 56°
2026-05-04 23:58 31.50225 131.16875 31217 ft 590 kts 56°
2026-05-04 23:58 31.54468 131.25118 31207 ft 589 kts 56°
2026-05-04 23:59 31.58691 131.33287 31213 ft 589 kts 56°
2026-05-04 23:59 31.62947 131.41524 31218 ft 590 kts 57°
2026-05-05 00:00 31.67159 131.49770 31204 ft 588 kts 57°
2026-05-05 00:00 31.71361 131.58028 31180 ft 589 kts 57°
2026-05-05 00:01 31.75569 131.66308 31206 ft 590 kts 57°
2026-05-05 00:01 31.79776 131.74587 31209 ft 590 kts 57°
2026-05-05 00:02 31.83955 131.82821 31241 ft 590 kts 57°
2026-05-05 00:02 31.88160 131.91123 31203 ft 591 kts 57°
2026-05-05 00:03 31.92363 131.99440 31183 ft 591 kts 57°
2026-05-05 00:03 31.96568 132.07784 31215 ft 591 kts 57°
2026-05-05 00:04 32.00768 132.16134 31201 ft 592 kts 57°
2026-05-05 00:04 32.04936 132.24439 31200 ft 592 kts 57°
2026-05-05 00:05 32.09127 132.32809 31205 ft 593 kts 57°
2026-05-05 00:05 32.13316 132.41200 31183 ft 594 kts 58°
2026-05-05 00:06 32.16524 132.48382 31204 ft 594 kts 63°
2026-05-05 00:06 32.20108 132.57175 31207 ft 596 kts 63°
2026-05-05 00:07 32.24319 132.67434 31205 ft 597 kts 63°
2026-05-05 00:07 32.27409 132.74803 31214 ft 596 kts 62°
2026-05-05 00:08 32.31089 132.83528 31200 ft 598 kts 62°
2026-05-05 00:08 32.34803 132.92355 31205 ft 598 kts 62°
2026-05-05 00:09 32.38499 133.01174 31229 ft 599 kts 62°
2026-05-05 00:09 32.42203 133.10043 31204 ft 601 kts 62°
2026-05-05 00:10 32.45902 133.18919 31206 ft 601 kts 63°
2026-05-05 00:10 32.49595 133.27807 31211 ft 600 kts 63°
2026-05-05 00:11 32.53255 133.36636 31211 ft 599 kts 63°
2026-05-05 00:11 32.56923 133.45508 31196 ft 599 kts 63°
2026-05-05 00:12 32.60591 133.54404 31208 ft 600 kts 63°
2026-05-05 00:12 32.64257 133.63310 31180 ft 601 kts 63°
2026-05-05 00:13 32.67919 133.72236 31221 ft 600 kts 63°
2026-05-05 00:13 32.71554 133.81103 31214 ft 601 kts 63°
2026-05-05 00:14 32.75208 133.90044 31216 ft 601 kts 63°
2026-05-05 00:14 32.78848 133.98977 31216 ft 602 kts 63°
2026-05-05 00:15 32.82292 134.08062 31215 ft 603 kts 72°
2026-05-05 00:15 32.84845 134.17552 31250 ft 602 kts 74°
2026-05-05 00:16 32.87224 134.27103 31220 ft 603 kts 75°
2026-05-05 00:16 32.89571 134.36686 31222 ft 602 kts 75°
2026-05-05 00:17 32.91907 134.46181 31236 ft 602 kts 75°
2026-05-05 00:17 32.94269 134.55756 31222 ft 602 kts 75°
2026-05-05 00:18 32.96623 134.65321 31210 ft 602 kts 75°
2026-05-05 00:18 32.98969 134.74893 31237 ft 602 kts 75°
2026-05-05 00:19 33.00611 134.84648 31220 ft 600 kts 84°
2026-05-05 00:19 33.01752 134.94493 31229 ft 600 kts 85°
2026-05-05 00:20 33.02794 135.04353 31221 ft 600 kts 86°
2026-05-05 00:20 33.03831 135.14214 31223 ft 600 kts 86°
2026-05-05 00:21 33.04876 135.24095 31221 ft 600 kts 86°
2026-05-05 00:21 33.05923 135.33955 31218 ft 600 kts 86°
2026-05-05 00:22 33.06959 135.43763 31218 ft 600 kts 86°
2026-05-05 00:22 33.07991 135.53644 31215 ft 600 kts 86°
2026-05-05 00:23 33.09013 135.63503 31215 ft 599 kts 86°
2026-05-05 00:23 33.10021 135.73374 31214 ft 600 kts 86°
2026-05-05 00:24 33.11030 135.83252 31209 ft 600 kts 86°
2026-05-05 00:24 33.12030 135.93130 31211 ft 599 kts 86°
2026-05-05 00:25 33.13022 136.03017 31212 ft 600 kts 86°
2026-05-05 00:25 33.13997 136.12825 31211 ft 599 kts 86°
2026-05-05 00:26 33.14971 136.22694 31212 ft 598 kts 86°
2026-05-05 00:26 33.15938 136.32576 31208 ft 598 kts 86°
2026-05-05 00:27 33.16896 136.42445 31206 ft 598 kts 86°
2026-05-05 00:27 33.17841 136.52268 31205 ft 598 kts 86°
2026-05-05 00:28 33.18787 136.62148 31169 ft 598 kts 86°
2026-05-05 00:28 33.19718 136.72015 31206 ft 597 kts 86°
2026-05-05 00:29 33.20639 136.81861 31207 ft 597 kts 87°
2026-05-05 00:29 33.21556 136.91727 31203 ft 597 kts 87°
2026-05-05 00:30 33.22465 137.01594 31206 ft 597 kts 87°
2026-05-05 00:30 33.23744 137.11358 31210 ft 601 kts 77°
2026-05-05 00:31 33.25977 137.21010 31201 ft 602 kts 75°
2026-05-05 00:31 33.28383 137.30582 31184 ft 601 kts 74°
2026-05-05 00:32 33.30804 137.40136 31211 ft 600 kts 74°
2026-05-05 00:32 33.33189 137.49680 31203 ft 599 kts 75°
2026-05-05 00:33 33.35552 137.59240 31206 ft 599 kts 75°
2026-05-05 00:33 33.37901 137.68794 31203 ft 598 kts 75°
2026-05-05 00:34 33.40243 137.78344 31203 ft 598 kts 75°
2026-05-05 00:34 33.42580 137.87850 31201 ft 598 kts 72°
2026-05-05 00:34 33.44206 137.92426 31204 ft 598 kts 60°
2026-05-05 00:35 33.46219 137.96788 31204 ft 597 kts 58°
2026-05-05 00:35 33.50499 138.05333 31205 ft 598 kts 56°
2026-05-05 00:36 33.54902 138.13792 31204 ft 598 kts 56°
2026-05-05 00:36 33.59295 138.22271 31200 ft 598 kts 56°
2026-05-05 00:37 33.63635 138.30735 31198 ft 600 kts 57°
2026-05-05 00:37 33.67992 138.39288 31197 ft 600 kts 57°
2026-05-05 00:38 33.72337 138.47839 31199 ft 600 kts 57°
2026-05-05 00:38 33.76682 138.56398 31200 ft 600 kts 57°
2026-05-05 00:39 33.81023 138.64973 31200 ft 600 kts 57°
2026-05-05 00:39 33.85351 138.73545 31200 ft 599 kts 57°
2026-05-05 00:40 33.89671 138.82120 31202 ft 599 kts 57°
2026-05-05 00:40 33.93983 138.90698 31205 ft 598 kts 57°
2026-05-05 00:41 33.98262 138.99229 31203 ft 597 kts 58°
2026-05-05 00:41 34.02551 139.07803 31192 ft 598 kts 58°
2026-05-05 00:42 34.06859 139.16433 31205 ft 600 kts 58°
2026-05-05 00:42 34.11151 139.25054 31205 ft 599 kts 58°
2026-05-05 00:43 34.15432 139.33681 31206 ft 599 kts 58°
2026-05-05 00:43 34.19684 139.42259 31206 ft 599 kts 58°
2026-05-05 00:44 34.23964 139.50907 31205 ft 599 kts 58°
2026-05-05 00:44 34.28245 139.59582 31217 ft 600 kts 58°
2026-05-05 00:45 34.32519 139.68269 31215 ft 600 kts 58°
2026-05-05 00:45 34.36785 139.76961 31213 ft 600 kts 59°
2026-05-05 00:46 34.41049 139.85669 31201 ft 601 kts 59°
2026-05-05 00:46 34.45306 139.94386 31201 ft 602 kts 59°
2026-05-05 00:47 34.49541 140.03076 31203 ft 602 kts 59°
2026-05-05 00:47 34.53798 140.11835 31207 ft 603 kts 59°
2026-05-05 00:48 34.58048 140.20603 31201 ft 603 kts 59°
2026-05-05 00:48 34.62296 140.29387 31204 ft 604 kts 59°
2026-05-05 00:49 34.66541 140.38188 31206 ft 604 kts 59°
2026-05-05 00:49 34.70777 140.47001 31208 ft 604 kts 60°
2026-05-05 00:50 34.74903 140.55899 31209 ft 604 kts 61°
2026-05-05 00:50 34.78977 140.64851 31226 ft 604 kts 61°
2026-05-05 00:51 34.83028 140.73741 31216 ft 605 kts 61°
2026-05-05 00:51 34.87121 140.82701 31218 ft 605 kts 61°
2026-05-05 00:52 34.91204 140.91648 31222 ft 605 kts 61°
2026-05-05 00:52 34.95295 141.00637 31222 ft 607 kts 61°
2026-05-05 00:53 34.99386 141.09655 31225 ft 607 kts 61°
2026-05-05 00:53 35.03469 141.18679 31225 ft 608 kts 61°
2026-05-05 00:54 35.07530 141.27678 31271 ft 608 kts 62°
2026-05-05 00:54 35.11612 141.36750 31223 ft 608 kts 62°
2026-05-05 00:55 35.15682 141.45816 31223 ft 609 kts 62°
2026-05-05 00:55 35.19069 141.53377 31222 ft 609 kts 62°
2026-05-05 00:56 35.23133 141.62475 31220 ft 609 kts 62°
2026-05-05 00:56 35.27849 141.73063 31222 ft 609 kts 62°
2026-05-05 00:57 35.31245 141.80707 31222 ft 609 kts 62°
2026-05-05 00:57 35.35265 141.89778 31222 ft 612 kts 62°
2026-05-05 00:58 35.39325 141.98966 31222 ft 612 kts 62°
2026-05-05 00:58 35.43369 142.08142 31221 ft 612 kts 62°
2026-05-05 00:59 35.47417 142.17352 31221 ft 613 kts 62°
2026-05-05 00:59 35.51459 142.26573 31222 ft 613 kts 62°
2026-05-05 01:00 35.55500 142.35819 31220 ft 615 kts 63°
2026-05-05 01:00 35.59525 142.45052 31221 ft 616 kts 63°
2026-05-05 01:01 35.63569 142.54353 31230 ft 617 kts 63°
2026-05-05 01:01 35.67612 142.63680 31217 ft 618 kts 63°
2026-05-05 01:02 35.71648 142.73017 31217 ft 618 kts 63°
2026-05-05 01:02 35.75682 142.82374 31218 ft 619 kts 63°
2026-05-05 01:03 35.79693 142.91705 31213 ft 619 kts 63°
2026-05-05 01:03 35.83723 143.01105 31209 ft 619 kts 63°
2026-05-05 01:04 35.87745 143.10515 31211 ft 619 kts 63°
2026-05-05 01:04 35.94653 143.23868 31208 ft 613 kts 39°
2026-05-05 01:05 36.01144 143.30485 31213 ft 608 kts 32°
2026-05-05 01:05 36.07954 143.36715 31208 ft 607 kts 30°
2026-05-05 01:06 36.14784 143.42861 31205 ft 608 kts 30°
2026-05-05 01:06 36.21598 143.49083 31206 ft 608 kts 31°
2026-05-05 01:07 36.28406 143.55368 31199 ft 611 kts 31°
2026-05-05 01:07 36.35181 143.61652 31208 ft 611 kts 31°
2026-05-05 01:08 36.41986 143.67978 31198 ft 609 kts 31°
2026-05-05 01:08 36.48769 143.74289 31197 ft 609 kts 31°
2026-05-05 01:09 36.55570 143.80627 31196 ft 611 kts 31°
2026-05-05 01:09 36.62344 143.86955 31236 ft 612 kts 31°
2026-05-05 01:10 36.69127 143.93308 31191 ft 610 kts 31°
2026-05-05 01:10 36.75912 143.99678 31189 ft 610 kts 31°
2026-05-05 01:11 36.82652 144.06017 31187 ft 610 kts 31°
2026-05-05 01:11 36.89429 144.12407 31186 ft 610 kts 31°
2026-05-05 01:12 36.96203 144.18809 31184 ft 610 kts 31°
2026-05-05 01:12 36.99439 144.22307 31185 ft 618 kts 43°
2026-05-05 01:12 37.02089 144.26550 31187 ft 621 kts 58°
2026-05-05 01:13 37.03973 144.31408 31178 ft 619 kts 74°
2026-05-05 01:13 37.05088 144.36522 31174 ft 615 kts 83°
2026-05-05 01:13 37.06440 144.47055 31173 ft 612 kts 89°
2026-05-05 01:14 37.07465 144.57632 31173 ft 613 kts 89°
2026-05-05 01:14 37.08592 144.68248 31147 ft 615 kts 88°
2026-05-05 01:15 37.09814 144.78785 31169 ft 615 kts 87°
2026-05-05 01:15 37.11065 144.89395 31167 ft 616 kts 88°
2026-05-05 01:16 37.12302 145.00026 31165 ft 616 kts 88°
2026-05-05 01:16 37.13520 145.10653 31162 ft 617 kts 88°
2026-05-05 01:17 37.14727 145.21314 31162 ft 617 kts 88°
2026-05-05 01:17 37.15925 145.31964 31159 ft 617 kts 88°
2026-05-05 01:18 37.17113 145.42612 31159 ft 617 kts 88°
2026-05-05 01:18 37.18285 145.53208 31151 ft 617 kts 89°
2026-05-05 01:19 37.19635 145.63806 31153 ft 620 kts 79°
2026-05-05 01:19 37.21168 145.68898 31146 ft 625 kts 65°
2026-05-05 01:19 37.23228 145.73697 31152 ft 626 kts 61°
2026-05-05 01:20 37.27763 145.83064 31150 ft 628 kts 58°
2026-05-05 01:20 37.32493 145.92313 31143 ft 631 kts 57°
2026-05-05 01:21 37.37209 146.01633 31139 ft 631 kts 58°
2026-05-05 01:21 37.41837 146.10946 31133 ft 631 kts 59°
2026-05-05 01:22 37.46464 146.20342 31136 ft 631 kts 59°
2026-05-05 01:22 37.51078 146.29733 31125 ft 631 kts 59°
2026-05-05 01:23 37.55669 146.39091 31122 ft 631 kts 59°
2026-05-05 01:23 37.60282 146.48514 31121 ft 631 kts 59°
2026-05-05 01:24 37.64883 146.57939 31115 ft 631 kts 59°
2026-05-05 01:24 37.69473 146.67372 31113 ft 631 kts 59°
2026-05-05 01:25 37.74067 146.76839 31104 ft 631 kts 59°
2026-05-05 01:25 37.78649 146.86308 31105 ft 631 kts 60°
2026-05-05 01:26 37.83185 146.95711 31099 ft 631 kts 60°
2026-05-05 01:26 37.87751 147.05203 31107 ft 632 kts 60°
2026-05-05 01:27 37.92329 147.14749 31089 ft 634 kts 60°
2026-05-05 01:27 37.96904 147.24315 31086 ft 634 kts 60°
2026-05-05 01:28 38.01469 147.33888 31080 ft 634 kts 60°
2026-05-05 01:28 38.06002 147.43421 31067 ft 634 kts 60°
2026-05-05 01:29 38.10548 147.53010 31066 ft 634 kts 60°
2026-05-05 01:29 38.15083 147.62606 31066 ft 634 kts 60°
2026-05-05 01:30 38.19611 147.72215 31061 ft 634 kts 61°
2026-05-05 01:30 38.24136 147.81846 31056 ft 633 kts 61°
2026-05-05 01:31 38.28648 147.91478 31056 ft 633 kts 61°
2026-05-05 01:31 38.33127 148.01065 31051 ft 633 kts 61°
2026-05-05 01:32 38.37628 148.10733 31045 ft 633 kts 61°
2026-05-05 01:32 38.42119 148.20407 31038 ft 633 kts 61°
2026-05-05 01:33 38.46603 148.30095 31035 ft 635 kts 61°
2026-05-05 01:33 38.51089 148.39817 31023 ft 636 kts 62°
2026-05-05 01:34 38.55571 148.49558 31008 ft 636 kts 62°
2026-05-05 01:34 38.60016 148.59248 31012 ft 635 kts 62°
2026-05-05 01:35 38.64478 148.69007 31012 ft 635 kts 62°
2026-05-05 01:35 38.68928 148.78770 31002 ft 635 kts 62°
2026-05-05 01:36 38.73374 148.88551 31002 ft 635 kts 62°
2026-05-05 01:36 38.77810 148.98342 30995 ft 635 kts 62°
2026-05-05 01:37 38.82240 149.08151 30988 ft 635 kts 62°
2026-05-05 01:37 38.86659 149.17964 30991 ft 635 kts 62°
2026-05-05 01:38 38.91036 149.27714 30980 ft 635 kts 63°
2026-05-05 01:38 38.95445 149.37568 30980 ft 635 kts 63°
2026-05-05 01:39 38.99844 149.47429 30977 ft 635 kts 63°
2026-05-05 01:39 39.04224 149.57279 30968 ft 635 kts 63°
2026-05-05 01:40 39.08577 149.67097 30968 ft 634 kts 63°
2026-05-05 01:40 39.12945 149.76982 30960 ft 633 kts 63°
2026-05-05 01:41 39.17288 149.86832 30958 ft 633 kts 63°
2026-05-05 01:41 39.21670 149.96686 30952 ft 632 kts 63°
2026-05-05 01:42 39.26046 150.06514 30947 ft 631 kts 63°
2026-05-05 01:42 39.30407 150.16361 30947 ft 632 kts 63°
2026-05-05 01:43 39.34754 150.26223 30936 ft 630 kts 63°
2026-05-05 01:43 39.39056 150.36016 30933 ft 629 kts 63°
2026-05-05 01:44 39.43377 150.45884 30934 ft 629 kts 63°
2026-05-05 01:44 39.47676 150.55732 30928 ft 629 kts 63°
2026-05-05 01:45 39.51969 150.65598 30917 ft 629 kts 63°
2026-05-05 01:45 39.56257 150.75481 30911 ft 629 kts 64°
2026-05-05 01:46 39.59817 150.83715 30916 ft 629 kts 64°
2026-05-05 01:46 39.64094 150.93630 30917 ft 629 kts 64°
2026-05-05 01:47 39.68356 151.03543 30916 ft 629 kts 64°
2026-05-05 01:47 39.72610 151.13470 30910 ft 628 kts 64°
2026-05-05 01:48 39.76856 151.23408 30904 ft 628 kts 64°
2026-05-05 01:48 39.81062 151.33289 30905 ft 628 kts 64°
2026-05-05 01:49 39.85285 151.43241 30912 ft 628 kts 64°
2026-05-05 01:49 39.89498 151.53199 30904 ft 628 kts 64°
2026-05-05 01:50 39.93706 151.63179 30882 ft 628 kts 64°
2026-05-05 01:50 39.97904 151.73169 30893 ft 628 kts 64°
2026-05-05 01:51 40.02090 151.83163 30889 ft 628 kts 64°
2026-05-05 01:51 40.06272 151.93179 30888 ft 628 kts 64°
2026-05-05 01:52 40.10414 152.03132 30897 ft 627 kts 65°
2026-05-05 01:52 40.14569 152.13147 30892 ft 627 kts 65°
2026-05-05 01:53 40.18718 152.23185 30889 ft 627 kts 65°
2026-05-05 01:53 40.22858 152.33233 30878 ft 627 kts 65°
2026-05-05 01:54 40.26987 152.43288 30878 ft 627 kts 65°
2026-05-05 01:54 40.31111 152.53362 30848 ft 627 kts 65°
2026-05-05 01:55 40.35225 152.63449 30878 ft 627 kts 65°
2026-05-05 01:55 40.39303 152.73476 30873 ft 627 kts 65°
2026-05-05 01:56 40.43393 152.83570 30869 ft 627 kts 65°
2026-05-05 01:56 40.47483 152.93698 30867 ft 627 kts 65°
2026-05-05 01:57 40.51565 153.03838 30870 ft 627 kts 65°
2026-05-05 01:57 40.55608 153.13917 30826 ft 627 kts 65°
2026-05-05 01:58 40.59666 153.24069 30852 ft 626 kts 65°
2026-05-05 01:58 40.63710 153.34220 30852 ft 626 kts 65°
2026-05-05 01:59 40.67748 153.44388 30824 ft 626 kts 66°
2026-05-05 01:59 40.71773 153.54559 30839 ft 625 kts 66°
2026-05-05 02:00 40.75777 153.64713 30843 ft 625 kts 66°
2026-05-05 02:00 40.79766 153.74864 30829 ft 625 kts 66°
2026-05-05 02:01 40.83757 153.85053 30835 ft 623 kts 66°
2026-05-05 02:01 40.87726 153.95219 30835 ft 623 kts 66°
2026-05-05 02:02 40.91690 154.05412 30818 ft 623 kts 66°
2026-05-05 02:02 40.95643 154.15611 30824 ft 622 kts 66°
2026-05-05 02:03 40.99556 154.25740 30820 ft 621 kts 66°